Regional Weather Roundup
Issued by NWS Burlington, VT

Current Version | Previous Version | Text Only | Print | Product List | Glossary Off
Versions: 1 2 3 4 5 6 7 8 9 10 11 12 13 14 15 16 17 18 19 20 21 22 23 24 25 26 27 28 29 30 31 32 33 34 35 36 37 38 39 40 41

000
ASUS41 KBTV 220110
RWRBTV
VERMONT REGIONAL WEATHER ROUNDUP
NATIONAL WEATHER SERVICE BURLINGTON VT
900 PM EDT TUE OCT 21 2014

NOTE: "FAIR" INDICATES FEW OR NO CLOUDS BELOW 12,000 FEET WITH NO
SIGNIFICANT WEATHER AND/OR OBSTRUCTIONS TO VISIBILITY.

* THESE REPORTS ARE NOT UNDER NWS QUALITY CONTROL AND/OR DO NOT
  REPORT WEATHER SUCH AS PRECIPITATION AND FOG.

VTZ001>019-220200-
_____VERMONT_____


CITY           SKY/WX    TMP DP  RH WIND       PRES   REMARKS
BURLINGTON     CLOUDY    49  46  90 N9        30.06R
MONTPELIER     LGT RAIN  45  45 100 N5        30.08R
MORRISVILLE    LGT RAIN  47  45  93 CALM      30.08R
ST. JOHNSBURY*   N/A     47  46  97 MISG      30.04R
LYNDONVILLE*   CLOUDY    47  43  87 NW5       30.06R
MIDDLEBURY*    CLOUDY    48  48 100 N3        30.04R
RUTLAND*       CLOUDY    46  45  93 CALM      30.01R
SPRINGFIELD    CLOUDY    49  45  86 NE5       30.03R
HIGHGATE*      DRIZZLE   45  44  97 N7        30.08R
NEWPORT*       DRIZZLE   46  45  97 N9        30.08R
BENNINGTON     CLOUDY    51  46  83 N5        29.97R
SUTTON*          N/A     45 N/A N/A MISG        N/A

_____LAKE CHAMPLAIN_____


CITY           SKY/WX    TMP DP  RH WIND       PRES   REMARKS
COLCHESTER RF*   N/A     48  46  93 N20         N/A
DIAMOND ISL*     N/A     48  46  93 NW16        N/A

$$

NYZ007-026>031-035-052-083-220200-
_____NORTHERN NEW YORK_____


CITY           SKY/WX    TMP DP  RH WIND       PRES   REMARKS
PLATTSBURGH    CLOUDY    44  43  96 N14       30.08R
SARANAC LAKE   CLOUDY    41  41 100 NE9       30.03R FOG
MASSENA        CLOUDY    45  35  68 NE16      30.13R
OGDENSBURG*    CLOUDY    45  37  76 NE8G16    30.11R
POTSDAM*       CLOUDY    43  43 100 E10G17    30.10R
WATERTOWN      CLOUDY    46  40  79 NE13      30.06R
FT DRUM        CLOUDY    43  42  99 NE16      30.04R
ALBANY         CLOUDY    51  47  86 N7        29.99R
GLENS FALLS    CLOUDY    51  46  83 N10       30.01R

$$
NHZ002-005-011-220200-
_____NEW HAMPSHIRE_____


CITY           SKY/WX    TMP DP  RH WIND       PRES   REMARKS
LEBANON        CLOUDY    49  45  86 VRB3      30.03R
KEENE          CLOUDY    52  43  71 N9        30.00R
MT WASHINGTON  LGT RAIN  32  32 100 E26         N/A  VSB 0
PLYMOUTH       CLOUDY    49  49 100 CALM      30.03R
WHITEFIELD     CLOUDY    47  43  86 E9G21     30.05R

$$

_____REGIONAL QUEBEC LOCATIONS_____


CITY           SKY/WX    TMP DP  RH WIND       PRES   REMARKS
MONTREAL       MOCLDY    45  34  65 NE15G24   30.14R
QUEBEC CITY    PTCLDY    45  28  53 NE13G21   30.22R
SHERBROOKE     LGT RAIN  43  43 100 NE8       30.11R

_____REGIONAL ONTARIO LOCATIONS_____


CITY           SKY/WX    TMP DP  RH WIND       PRES   REMARKS
OTTAWA         CLOUDY    45  34  65 N13       30.15R

______KEY______
VSB  - VISIBILITY IN MILES
WCI  - WIND CHILL INDEX
HX   - HEAT INDEX
$$
NNNN



USA.gov is the U.S. government's official web portal to all federal, state and local government web resources and services.